Location: ???? ????
(41.4149°N, 22.8816°E)
Time: 12:12:02
(UTC+00:00)

Meteor 2-9 - Pass Details

Date: 14 July 2020
Orbit: 803 x 878 km, 81.2° (Epoch: 09 August)

Event Time Altitude Azimuth Distance (km) Brightness Sun altitude
Exits shadow 00:19:49 52° 195° (SSW) 993 4.6 -22.4°
Maximum altitude 00:21:11 85° 280° (W) 813 4.5 -22.3°
Drops below altitude 10° 00:26:37 10° 9° (N) 2,405 8.1 -21.8°
Sets 00:29:02 0° 10° (N) 3,348 9.1 -21.6°
